Glasgow, United Kingdom

11:35 AM BST on June 23, 2017 (GMT +0100)
Glasgow

Weather History for EGPF - January, 2014

Change the Weather History Date:

Tuesday, January 7, 2014

  Actual Average Record
Temperature  
Mean Temperature 46 °F -  
Max Temperature 48 °F 43 °F 53 °F (2005)
Min Temperature 44 °F 33 °F 12 °F (2003)
Degree Days  
Heating Degree Days 19    
Moisture  
Dew Point 42 °F    
Average Humidity 84    
Maximum Humidity 93    
Minimum Humidity 76    
Precipitation  
Precipitation 0.00 in - - ()
Sea Level Pressure  
Sea Level Pressure 29.10 in    
Wind  
Wind Speed 20 mph ()    
Max Wind Speed 28 mph    
Max Gust Speed 40 mph    
Visibility 5.8 miles    
Events Rain    
Averages and records for this station are not official NWS values.
T = Trace of Precipitation, MM = Missing Value Source: Averaged Metar Reports

Daily Weather History Graph

Daily Weather History Graph

Search for Another Location

Airport or City:

Trip Planner

Search our weather history database for the weather conditions in past years. The results will help you decide how hot, cold, wet, or windy it might be!

Date:

Astronomy

Jan. 07, 2014 Rise Set
Actual Time 8:45 AM GMT 4:02 PM GMT
Civil Twilight 7:59 AM GMT 4:48 PM GMT
Nautical Twilight 7:11 AM GMT 5:36 PM GMT
Astronomical Twilight 6:26 AM GMT 6:21 PM GMT
Moon 11:06 AM GMT (1/7) No Moon Set
Length of Visible Light 8h 49m
Length of Day
7h 17m
Waxing Crescent, 43% of the Moon is Illuminated
Jan 7
Waxing Crescent
Jan 8
First Quarter
Jan 16
Full
Jan 24
Last Quarter
Jan 30
New

Hourly Weather History & Observations

Time (GMT) Temp. Windchill Dew Point Humidity Pressure Visibility Wind Dir Wind Speed Gust Speed Precip Events Conditions
12:20 AM 48.2 °F - 41.0 °F 76% 28.88 in 6.2 mi SSW 24.2 mph - N/A   Mostly Cloudy
12:50 AM 48.2 °F - 41.0 °F 76% 28.88 in 6.2 mi SSW 26.5 mph - N/A   Mostly Cloudy
1:20 AM 48.2 °F - 41.0 °F 76% 28.91 in 6.2 mi SSW 27.6 mph - N/A   Mostly Cloudy
1:50 AM 48.2 °F - 41.0 °F 76% 28.91 in 6.2 mi SSW 27.6 mph - N/A   Mostly Cloudy
2:20 AM 48.2 °F - 41.0 °F 76% 28.91 in 6.2 mi SSW 27.6 mph 39.1 mph N/A   Mostly Cloudy
2:50 AM 46.4 °F 37.9 °F 41.0 °F 81% 28.94 in 6.2 mi SSW 25.3 mph 36.8 mph N/A   Mostly Cloudy
3:20 AM 46.4 °F 37.5 °F 41.0 °F 81% 28.94 in 6.2 mi SSW 27.6 mph - N/A Rain Light Rain
3:50 AM 46.4 °F 37.7 °F 41.0 °F 81% 28.94 in 6.2 mi SSW 26.5 mph 39.1 mph N/A   Overcast
4:20 AM 46.4 °F 37.7 °F 41.0 °F 81% 28.94 in 6.2 mi SSW 26.5 mph 40.3 mph N/A Rain Light Rain
4:50 AM 46.4 °F 37.7 °F 41.0 °F 81% 28.97 in 5.6 mi SW 26.5 mph - N/A Rain Light Rain
5:20 AM 46.4 °F 37.7 °F 41.0 °F 81% 28.97 in 4.3 mi SW 26.5 mph - N/A Rain Light Rain
5:50 AM 46.4 °F 37.9 °F 41.0 °F 81% 28.97 in 3.7 mi SSW 25.3 mph - N/A Rain Light Rain
6:20 AM 46.4 °F 38.1 °F 41.0 °F 81% 29.00 in 4.3 mi SSW 24.2 mph 36.8 mph N/A Rain Light Rain
6:50 AM 46.4 °F 37.9 °F 41.0 °F 81% 29.00 in 5.0 mi SW 25.3 mph 36.8 mph N/A Rain Light Rain
7:20 AM 46.4 °F 38.1 °F 41.0 °F 81% 29.03 in 6.2 mi SSW 24.2 mph - N/A Rain Light Rain
7:50 AM 46.4 °F 38.3 °F 41.0 °F 81% 29.03 in 4.3 mi SSW 23.0 mph - N/A Rain Light Rain
8:20 AM 46.4 °F 38.5 °F 41.0 °F 81% 29.03 in 4.3 mi SW 21.9 mph - N/A Rain Light Rain
8:50 AM 46.4 °F 38.7 °F 41.0 °F 81% 29.06 in 5.6 mi SW 20.7 mph - N/A Rain Light Rain
9:20 AM 46.4 °F 38.7 °F 42.8 °F 87% 29.06 in 5.0 mi SW 20.7 mph - N/A Rain Light Rain
9:50 AM 46.4 °F 38.7 °F 42.8 °F 87% 29.09 in 4.3 mi SSW 20.7 mph 34.5 mph N/A Rain Rain
10:20 AM 46.4 °F 39.2 °F 41.0 °F 81% 29.09 in 6.2 mi SSW 18.4 mph - N/A Rain Light Rain
10:50 AM 46.4 °F 39.0 °F 41.0 °F 81% 29.09 in 6.2 mi SSW 19.6 mph - N/A Rain Light Rain
11:20 AM 46.4 °F 39.0 °F 41.0 °F 81% 29.12 in 6.2 mi SW 19.6 mph - N/A Rain Light Rain
11:50 AM 46.4 °F 38.7 °F 41.0 °F 81% 29.12 in 6.2 mi SSW 20.7 mph 33.4 mph N/A Rain Light Rain
12:20 PM 46.4 °F 39.5 °F 42.8 °F 87% 29.12 in 6.2 mi SW 17.3 mph - N/A Rain Light Rain
12:50 PM 48.2 °F - 41.0 °F 76% 29.12 in 6.2 mi SW 18.4 mph - N/A   Mostly Cloudy
1:20 PM 48.2 °F - 42.8 °F 82% 29.12 in 6.2 mi SSW 18.4 mph - N/A   Mostly Cloudy
1:50 PM 48.2 °F - 42.8 °F 82% 29.12 in 6.2 mi SSW 17.3 mph - N/A   Mostly Cloudy
2:20 PM 48.2 °F - 41.0 °F 76% 29.12 in 6.2 mi SSW 17.3 mph - N/A   Mostly Cloudy
2:50 PM 46.4 °F 39.0 °F 42.8 °F 87% 29.12 in 6.2 mi SSW 19.6 mph - N/A   Light Drizzle
3:20 PM 46.4 °F 40.7 °F 42.8 °F 87% 29.12 in 6.2 mi SSW 12.7 mph - N/A Rain Light Rain
3:50 PM 46.4 °F 39.8 °F 42.8 °F 87% 29.12 in 5.0 mi SW 16.1 mph - N/A Rain Light Rain
4:20 PM 46.4 °F 39.8 °F 42.8 °F 87% 29.15 in 6.2 mi SW 16.1 mph - N/A Rain Light Rain
4:50 PM 46.4 °F 39.8 °F 42.8 °F 87% 29.15 in 6.2 mi SW 16.1 mph - N/A Rain Light Rain
5:20 PM 46.4 °F 41.1 °F 42.8 °F 87% 29.18 in 5.0 mi WSW 11.5 mph - N/A Rain Light Rain
5:50 PM 44.6 °F 39.2 °F 42.8 °F 93% 29.18 in 6.2 mi SW 10.4 mph - N/A   Light Drizzle
6:20 PM 44.6 °F 39.2 °F 42.8 °F 93% 29.21 in 6.2 mi SW 10.4 mph - N/A Rain Light Rain
6:50 PM 44.6 °F 37.8 °F 42.8 °F 93% 29.24 in 6.2 mi SW 15.0 mph - N/A   Mostly Cloudy
7:20 PM 44.6 °F 37.4 °F 42.8 °F 93% 29.24 in 6.2 mi SW 16.1 mph - N/A   Mostly Cloudy
7:50 PM 46.4 °F 40.1 °F 42.8 °F 87% 29.27 in 6.2 mi SW 15.0 mph - N/A   Scattered Clouds
8:20 PM 46.4 °F 40.4 °F 42.8 °F 87% 29.27 in 6.2 mi SSW 13.8 mph - N/A   Scattered Clouds
8:50 PM 46.4 °F 38.7 °F 42.8 °F 87% 29.30 in 6.2 mi SW 20.7 mph - N/A   Mostly Cloudy
9:20 PM 46.4 °F 38.7 °F 42.8 °F 87% 29.30 in 6.2 mi SW 20.7 mph - N/A   Scattered Clouds
9:50 PM 46.4 °F 38.7 °F 42.8 °F 87% 29.33 in 6.2 mi SW 20.7 mph - N/A   Mostly Cloudy
10:20 PM 46.4 °F 39.0 °F 42.8 °F 87% 29.33 in 6.2 mi SW 19.6 mph - N/A   Mostly Cloudy
10:50 PM 46.4 °F 39.0 °F 42.8 °F 87% 29.33 in 6.2 mi SW 19.6 mph - N/A   Mostly Cloudy
11:20 PM 46.4 °F 39.2 °F 42.8 °F 87% 29.36 in 6.2 mi SW 18.4 mph - N/A   Overcast
11:50 PM 46.4 °F 39.2 °F 42.8 °F 87% 29.36 in 6.2 mi SW 18.4 mph - N/A   Overcast